Date,TemperatureHighF,TemperatureAvgF,TemperatureLowF,DewpointHighF,DewpointAvgF,DewpointLowF,HumidityHigh,HumidityAvg,HumidityLow,PressureMaxIn,PressureMinIn,WindSpeedMaxMPH,WindSpeedAvgMPH,GustSpeedMaxMPH,PrecipitationSumIn
2013-1-1,39.3,32.9,28.4,24.5,21.0,17.4,71,61,47,30.42,30.27,4,0,6,0.00
2013-1-2,39.2,32.2,28.2,32.0,22.2,17.8,79,67,56,30.27,30.12,3,0,3,0.00
2013-1-3,40.2,32.8,26.0,30.2,20.7,15.3,75,61,40,30.12,30.02,7,0,8,0.16
2013-1-4,48.3,42.3,37.4,41.4,34.8,30.2,83,75,63,30.23,30.08,5,0,8,0.08
2013-1-5,46.2,41.6,39.7,35.2,30.9,24.7,76,66,45,30.14,30.02,5,0,10,0.08
2013-1-6,45.8,42.6,39.3,35.4,32.9,28.6,75,69,51,30.11,29.90,7,1,9,0.24
2013-1-7,50.1,46.8,41.9,41.8,36.3,29.4,79,67,50,30.08,29.75,12,3,22,0.27
2013-1-8,53.2,47.8,42.9,45.8,36.7,28.9,84,66,50,30.08,29.66,10,3,20,0.55
2013-1-9,50.3,42.1,37.7,43.7,33.7,27.2,79,72,62,29.88,29.60,8,1,15,1.14
2013-1-10,38.8,36.5,31.2,31.6,28.4,21.6,76,72,66,30.03,29.88,4,0,6,0.04
2013-1-11,33.6,30.2,26.9,26.0,22.2,17.4,76,72,67,30.27,30.03,0,0,0,0.00
2013-1-12,35.0,29.6,26.0,23.1,17.5,13.1,73,61,47,30.39,30.24,4,0,8,0.00
2013-1-13,35.0,29.3,23.7,24.7,17.8,11.8,71,62,44,30.42,30.35,4,0,5,0.00
2013-1-14,36.6,34.5,32.3,27.3,23.1,19.6,71,63,54,30.50,30.39,4,0,5,0.00
2013-1-15,41.3,35.6,31.1,28.5,23.5,18.4,74,62,43,30.62,30.47,4,0,8,0.00
2013-1-16,31.1,31.0,30.9,18.4,18.3,18.2,59,59,59,30.60,30.60,0,0,0,0.00
2013-1-24,42.8,42.8,42.6,35.4,35.0,34.9,75,74,74,29.99,29.99,0,0,3,0.04
2013-1-25,49.2,44.2,39.3,42.2,36.6,30.7,81,75,68,29.99,29.84,4,0,6,0.20
2013-1-26,45.8,42.3,39.5,35.4,31.8,28.2,78,67,51,29.96,29.81,7,1,13,0.16
2013-1-27,42.9,41.7,40.4,33.3,31.4,28.6,72,67,57,29.99,29.90,7,1,11,0.12
2013-1-28,42.8,41.2,38.6,36.4,34.2,31.7,78,76,72,30.02,29.93,5,1,8,0.55
2013-1-29,47.6,44.8,42.2,42.4,38.8,35.5,83,79,76,30.26,30.02,7,1,11,0.71
2013-1-30,49.2,47.6,45.1,43.6,41.8,38.3,82,80,77,30.29,30.26,5,0,10,0.16
2013-1-31,50.0,48.1,47.1,41.9,40.2,35.8,81,74,58,30.32,30.23,7,1,11,0.16
2013-2-1,50.5,46.4,42.6,41.1,37.2,30.6,79,71,50,30.32,30.26,4,0,8,0.04
2013-2-2,43.3,41.1,38.3,36.1,33.8,32.0,79,75,68,30.29,30.17,4,0,6,0.00
2013-2-3,48.5,44.2,39.0,39.5,35.4,31.1,80,71,54,30.23,30.14,4,0,7,0.12
2013-2-4,50.9,47.1,44.6,38.3,34.4,27.8,75,62,42,30.14,29.81,4,0,9,0.00
2013-2-5,50.3,46.9,44.6,38.2,33.6,29.1,75,60,44,29.87,29.78,8,2,13,0.24
2013-2-6,50.7,46.3,43.7,32.3,28.9,24.4,61,51,37,29.99,29.72,8,3,14,0.04
2013-2-7,49.4,43.3,35.2,34.1,24.8,20.4,68,48,33,30.12,29.72,8,2,14,0.12
2013-2-8,44.9,38.4,33.0,32.1,25.6,21.0,77,61,43,30.24,30.12,4,0,6,0.00
2013-2-9,47.4,42.1,39.9,40.2,33.6,28.0,76,72,61,30.20,29.87,3,0,5,0.04
2013-2-10,47.4,41.6,36.3,35.5,30.4,26.5,78,65,48,29.87,29.10,5,0,6,0.00
2013-2-11,48.0,43.8,39.3,35.2,30.1,25.5,75,59,42,29.10,28.83,4,0,7,0.00
2013-2-12,49.2,46.8,43.7,41.6,36.8,31.2,79,69,54,28.92,28.80,11,2,15,0.08
2013-2-13,48.9,46.9,45.6,39.0,32.8,28.7,73,58,47,29.01,28.80,7,1,11,0.00
2013-2-14,49.6,46.7,44.0,38.7,35.0,31.1,73,64,51,29.10,29.01,4,0,10,0.04
2013-2-15,54.3,44.6,39.7,39.0,33.2,28.0,79,65,41,29.10,28.74,4,0,8,0.00
2013-2-16,52.5,44.6,37.9,38.5,32.2,25.7,79,63,36,28.74,28.67,9,2,15,0.43
2013-2-17,46.9,42.6,40.2,33.1,29.2,23.2,74,60,39,28.77,28.68,4,0,8,0.00
2013-2-18,47.3,41.9,38.1,33.1,28.1,23.4,75,59,39,28.68,28.32,5,0,8,0.04
2013-2-19,49.6,42.2,35.7,29.7,24.6,20.7,70,51,33,28.56,28.29,5,1,12,0.00
2013-2-20,45.6,40.7,34.8,32.6,27.9,22.4,73,61,44,28.62,28.56,8,0,11,0.04
2013-2-21,44.6,42.6,40.2,33.6,29.7,26.4,75,61,50,28.62,28.56,8,3,17,0.04
2013-2-22,46.0,43.0,39.9,35.6,29.7,22.6,73,60,48,28.59,28.26,12,4,17,0.16
2013-2-23,48.7,43.3,39.7,31.0,26.0,23.0,65,51,37,28.92,28.47,7,2,12,0.04
2013-2-24,48.0,44.5,41.0,30.4,25.2,22.3,65,47,38,28.92,28.50,8,2,15,0.00
2013-2-25,45.8,43.5,42.9,32.2,29.1,22.9,65,57,40,28.50,28.44,7,3,15,0.04
2013-2-28,52.1,52.1,51.9,44.4,44.3,44.1,75,75,74,28.85,28.85,4,1,7,0.00
2013-3-1,57.7,54.2,51.4,46.5,40.0,36.0,80,59,45,28.88,28.82,8,2,15,0.04
2013-3-2,58.1,50.6,41.1,42.3,35.2,29.5,67,56,37,28.82,28.58,10,2,13,0.55
2013-3-3,49.2,41.5,34.7,34.4,25.3,18.6,76,54,31,28.83,28.74,7,1,12,0.00
2013-3-4,53.6,41.6,30.5,25.8,18.3,13.6,69,42,23,28.83,28.44,8,2,14,0.00
2013-3-5,52.7,47.3,42.4,28.2,20.3,12.9,52,35,27,28.44,28.23,10,1,16,0.00
2013-3-6,45.1,42.9,40.2,35.9,31.9,26.2,71,65,51,28.29,28.11,3,0,6,0.31
2013-3-7,42.8,42.8,42.8,34.0,34.0,34.0,71,71,71,28.29,28.29,0,0,0,0.00
2013-3-8,42.8,42.8,42.8,34.0,34.0,34.0,71,71,71,28.29,28.29,0,0,0,0.00
2013-3-9,42.8,42.8,42.8,34.0,34.0,34.0,71,71,71,28.29,28.29,0,0,0,0.00
2013-3-10,42.8,42.8,42.8,34.0,34.0,34.0,71,71,71,28.29,28.29,0,0,0,0.00
2013-3-11,42.8,42.8,42.8,34.0,34.0,34.0,71,71,71,28.29,28.29,0,0,0,0.00
2013-3-12,42.8,42.8,42.8,34.0,34.0,34.0,71,71,71,28.29,28.29,0,0,0,0.00
2013-3-13,42.8,42.8,42.8,34.0,34.0,34.0,71,71,71,28.29,28.29,0,0,0,0.00
2013-3-14,42.8,42.8,42.8,34.0,34.0,34.0,71,71,71,28.29,28.29,0,0,0,0.00
2013-3-15,59.5,49.8,42.8,39.4,34.8,32.7,71,58,37,30.10,28.29,7,2,11,0.00
2013-3-16,51.0,48.0,42.2,40.4,30.1,22.5,69,50,38,30.05,29.81,8,3,17,0.04
2013-3-17,49.6,43.5,39.2,32.6,24.0,19.9,69,47,31,30.11,29.90,8,2,13,0.08
2013-3-18,51.4,44.1,38.1,36.3,25.0,21.6,73,47,32,30.17,30.05,9,2,15,0.04
2013-3-19,56.8,43.8,34.5,34.6,25.0,18.1,71,50,22,30.17,29.54,9,2,15,0.24
2013-3-20,52.1,47.3,41.5,44.5,32.2,20.1,81,58,38,29.93,29.33,15,4,23,0.51
2013-3-21,48.7,41.8,37.7,28.4,23.8,20.6,67,49,33,30.14,29.93,7,2,13,0.04
2013-3-22,45.6,39.3,33.9,29.7,22.8,16.5,73,53,32,30.30,30.14,6,1,9,0.08
2013-3-23,49.2,40.0,33.0,23.4,19.0,15.0,65,45,27,30.33,30.23,5,1,9,0.00
2013-3-24,54.1,41.8,31.6,22.9,19.2,16.2,63,42,23,30.24,30.05,6,0,8,0.00
2013-3-25,60.9,48.5,33.8,24.3,18.8,14.7,51,32,19,30.05,29.86,7,1,10,0.00
2013-3-26,60.6,51.7,44.9,28.2,25.1,22.3,48,36,25,29.96,29.86,7,1,10,0.00
2013-3-27,58.4,50.9,45.3,36.0,30.2,26.7,58,45,31,29.93,29.87,5,0,7,0.00
2013-3-28,61.5,51.6,44.2,42.5,34.4,30.1,77,54,31,30.08,29.93,7,1,9,0.04
2013-3-29,63.6,53.2,44.4,37.0,32.1,27.9,69,47,28,30.17,30.08,6,1,11,0.00
2013-3-30,67.1,53.3,40.6,34.1,29.8,26.7,68,43,24,30.20,30.01,7,1,10,0.00
2013-3-31,70.1,55.9,41.9,35.4,30.8,28.2,66,41,23,30.02,29.83,6,1,8,0.00
2013-4-1,62.0,54.1,48.2,41.5,35.3,31.4,74,50,34,30.08,29.90,7,2,11,0.00
2013-4-2,56.8,53.2,50.1,39.8,35.8,33.0,67,52,41,30.14,30.07,5,1,9,0.00
2013-4-3,63.6,55.0,46.5,41.8,33.8,27.3,75,47,26,30.11,29.87,6,1,8,0.00
2013-4-4,56.8,53.7,50.3,50.0,42.2,34.0,78,66,48,29.90,29.57,7,1,13,0.31
2013-4-5,58.8,54.0,51.2,44.8,41.0,34.3,77,63,40,29.81,29.66,8,3,15,0.39
2013-4-6,51.2,51.2,51.2,41.4,41.4,41.4,69,69,69,29.78,29.78,0,0,0,0.00
2013-4-7,51.2,51.2,51.2,41.4,41.4,41.4,69,69,69,29.78,29.78,0,0,0,0.00
2013-4-8,51.2,51.2,51.2,41.4,41.4,41.4,69,69,69,29.78,29.78,0,0,0,0.00
2013-4-9,51.2,51.2,51.2,41.4,41.4,41.4,69,69,69,29.78,29.78,0,0,0,0.00
2013-4-10,60.6,51.9,49.1,41.4,39.1,31.2,69,62,37,30.20,29.78,9,1,14,0.08
2013-4-11,52.3,48.7,45.3,38.0,31.0,24.4,70,51,37,30.23,30.11,8,1,9,0.08
2013-4-12,49.4,44.9,41.0,38.5,31.1,25.5,76,59,40,30.11,29.60,8,2,15,0.16
2013-4-13,48.7,43.5,38.6,36.3,30.3,25.7,74,60,41,29.93,29.69,8,2,15,0.59
2013-4-14,54.1,45.9,40.2,36.2,30.2,21.0,76,57,28,29.93,29.84,7,1,11,0.12
2013-4-15,56.4,46.0,40.2,37.5,29.8,25.3,76,55,32,30.11,29.87,8,1,17,0.08
2013-4-16,56.3,45.5,38.1,35.6,29.2,22.0,76,55,28,30.32,30.11,7,1,11,0.00
2013-4-17,61.1,49.3,37.2,32.3,26.5,23.0,71,44,24,30.38,30.31,7,1,10,0.00
2013-4-18,52.1,49.3,46.2,42.0,32.7,25.7,73,54,40,30.38,30.14,8,2,11,0.16
2013-4-19,55.9,52.0,49.2,47.6,44.0,41.3,78,74,66,30.14,29.99,9,2,13,0.83
2013-4-20,56.3,51.1,47.8,42.7,38.4,33.9,75,63,43,30.20,30.11,8,2,11,0.24
2013-4-21,53.2,48.4,43.7,39.3,33.1,26.5,70,56,36,30.29,30.14,7,1,14,0.08
2013-4-22,60.8,49.2,37.0,33.7,25.1,17.3,75,43,19,30.44,30.29,8,2,14,0.00
2013-4-23,62.7,50.4,36.8,30.1,23.7,18.5,65,38,18,30.35,30.16,7,1,14,0.00
2013-4-24,68.7,55.0,39.3,30.4,25.2,19.9,62,35,17,30.26,30.01,7,1,11,0.00
2013-4-25,70.8,57.7,42.6,32.0,27.4,24.4,53,33,19,30.07,29.98,6,1,9,0.00
2013-4-26,68.3,58.3,47.3,40.2,33.6,29.5,69,41,24,30.17,30.07,7,1,11,0.00
2013-4-27,57.2,54.6,52.1,42.4,33.0,23.6,67,45,29,30.17,30.07,8,2,13,0.08
2013-4-28,59.1,52.9,48.7,41.3,34.7,27.2,71,52,32,30.14,29.90,10,2,13,0.08
2013-4-29,56.4,49.9,43.5,42.2,31.6,23.3,75,51,30,30.11,29.84,7,2,13,0.16
2013-4-30,54.5,46.5,38.1,35.9,25.9,18.6,73,47,25,30.38,30.11,6,1,11,0.16
2013-5-1,64.2,50.7,35.4,28.6,23.1,18.5,64,37,18,30.50,30.38,6,1,10,0.00
2013-5-2,71.2,56.0,42.0,32.1,27.3,22.9,57,35,20,30.47,30.27,7,2,11,0.00
2013-5-3,69.8,58.8,44.0,33.0,30.4,26.9,57,36,23,30.32,30.16,8,2,12,0.00
2013-5-4,77.7,63.1,46.5,36.1,31.6,24.0,60,34,15,30.17,29.95,8,2,15,0.00
2013-5-5,82.4,66.3,49.1,36.9,32.7,26.8,57,32,14,29.95,29.73,6,1,11,0.00
2013-5-6,85.4,69.5,51.4,37.0,32.1,27.2,50,28,13,29.78,29.70,6,1,11,0.00
2013-5-7,70.7,62.6,54.1,39.5,37.2,33.6,57,40,28,29.95,29.77,7,2,10,0.00
2013-5-8,65.6,58.3,53.2,40.8,38.5,36.2,58,48,35,30.07,29.95,5,1,8,0.00
2013-5-9,70.5,59.6,50.5,46.0,40.6,35.3,75,52,29,30.14,30.04,5,1,8,0.00
2013-5-10,78.9,65.5,49.6,42.2,38.1,34.0,67,39,21,30.13,30.03,6,1,8,0.00
2013-5-11,80.0,68.5,57.9,42.5,36.3,30.4,50,32,21,30.10,29.91,7,1,11,0.00
2013-5-12,71.7,65.3,60.4,53.6,45.2,39.3,74,50,31,30.04,29.95,6,2,9,0.24
2013-5-13,66.7,58.2,50.9,50.9,42.2,28.2,74,57,36,30.14,29.86,9,2,15,0.16
2013-5-14,64.4,55.8,46.2,38.2,30.2,25.3,67,40,24,30.17,30.04,7,1,9,0.00
2013-5-15,68.5,56.2,46.0,45.6,34.6,28.9,70,46,24,30.08,29.95,7,1,11,0.04
2013-5-16,71.2,61.6,54.1,48.1,40.2,31.0,76,49,24,29.96,29.80,7,1,11,0.04
2013-5-17,62.9,58.4,55.0,46.8,39.0,33.8,70,50,34,29.98,29.89,7,2,9,0.04
2013-5-18,62.6,57.9,53.6,37.7,34.4,30.6,51,42,32,30.19,29.98,7,1,10,0.00
2013-5-19,64.4,57.6,52.7,38.7,36.2,33.2,56,45,33,30.31,30.19,6,1,8,0.00
2013-5-20,67.6,57.7,47.4,41.2,34.9,28.3,70,44,24,30.29,29.84,7,1,9,0.00
2013-5-21,59.7,53.0,48.9,41.1,36.1,31.7,69,54,36,29.84,29.71,6,1,9,0.35
2013-5-22,54.5,49.3,45.5,40.4,37.5,33.9,73,64,46,29.87,29.78,4,1,8,0.20
2013-5-23,58.8,51.6,46.7,41.1,35.9,30.2,76,57,35,29.93,29.87,6,1,11,0.04
2013-5-24,63.1,54.6,47.3,42.9,35.8,28.3,76,52,27,29.99,29.90,6,1,11,0.00
2013-5-25,64.2,57.3,51.8,37.6,33.6,27.6,57,42,26,29.99,29.89,5,1,9,0.00
2013-5-26,64.9,57.9,52.5,47.7,40.1,34.8,73,53,35,29.93,29.87,5,1,9,0.08
2013-5-27,60.9,57.3,52.1,48.7,44.3,39.0,73,62,49,29.89,29.65,5,1,9,0.16
2013-5-28,64.0,57.7,53.2,47.2,40.9,34.6,75,55,35,29.81,29.72,7,1,12,0.08
2013-5-29,62.0,55.6,51.2,45.7,39.9,33.8,74,57,36,29.90,29.63,7,1,13,0.08
2013-5-30,65.4,57.0,49.8,36.5,32.8,28.6,54,41,25,30.16,29.90,8,3,13,0.00
2013-5-31,67.2,59.2,52.8,38.2,32.5,27.4,57,38,24,30.28,30.19,6,1,8,0.00
2013-6-1,72.1,62.3,51.9,37.9,33.6,29.9,56,36,22,30.19,29.98,7,2,9,0.00
2013-6-2,69.4,61.9,55.7,46.2,37.5,31.4,69,42,25,30.01,29.98,6,1,11,0.04
2013-6-3,71.9,62.2,51.6,43.2,38.1,32.6,71,43,25,30.05,29.98,6,1,10,0.00
2013-6-4,79.8,67.1,51.6,42.5,37.5,32.6,64,36,21,30.07,29.94,7,1,11,0.00
2013-6-5,78.0,66.9,54.1,40.8,37.6,33.6,53,35,22,30.01,29.97,6,2,11,0.00
2013-6-6,79.8,68.2,54.5,42.1,36.6,27.7,59,34,17,29.99,29.94,6,1,12,0.00
2013-6-7,70.5,63.2,57.9,40.0,33.3,27.2,42,33,23,30.10,29.95,8,1,15,0.00
2013-6-8,69.0,60.9,54.8,37.6,34.6,32.5,46,38,28,30.10,30.01,6,1,9,0.00
2013-6-9,69.2,60.1,53.6,36.0,32.7,29.1,51,36,24,30.04,29.95,7,2,12,0.00
2013-6-10,69.8,61.1,50.0,34.6,31.7,29.2,51,34,22,29.99,29.83,8,2,13,0.00
2013-6-11,66.2,60.2,54.1,35.1,31.2,27.8,42,34,25,30.04,29.89,8,3,13,0.00
2013-6-12,69.2,60.6,54.5,37.9,32.0,27.9,47,35,23,30.10,30.01,7,2,11,0.00
2013-6-13,66.2,60.0,54.6,44.8,37.1,29.3,68,44,26,30.16,30.07,6,1,8,0.00
2013-6-14,66.5,60.2,55.0,37.4,34.4,31.2,48,38,27,30.16,30.01,8,2,11,0.00
2013-6-15,77.0,65.0,49.2,41.5,37.0,33.7,66,38,21,29.99,29.85,6,1,10,0.00
2013-6-16,75.9,66.3,57.5,51.8,40.7,35.8,57,41,25,30.01,29.92,6,1,12,0.04
2013-6-17,75.7,66.2,57.5,44.9,38.3,31.2,62,38,21,30.01,29.83,6,2,12,0.08
2013-6-18,73.2,65.2,57.2,50.4,38.6,29.1,73,42,21,29.92,29.80,7,2,9,0.00
2013-6-19,65.8,60.8,57.2,45.8,39.2,34.3,54,45,33,29.95,29.83,7,1,11,0.12
2013-6-20,60.6,57.4,54.8,48.3,44.2,35.7,76,62,42,30.04,29.89,6,1,10,1.57
2013-6-21,67.4,60.0,54.5,49.1,43.3,35.7,78,57,31,30.10,30.01,4,0,8,0.04
2013-6-22,77.0,66.1,51.9,46.7,39.8,33.7,71,42,21,30.07,29.80,6,1,10,0.00
2013-6-23,70.8,66.2,60.8,56.3,48.2,40.7,72,53,35,29.80,29.53,4,0,8,0.08
2013-6-24,68.1,63.3,58.8,54.2,46.3,38.5,77,56,36,29.65,29.50,8,1,10,0.16
2013-6-25,73.2,63.5,57.9,53.6,46.7,34.8,77,57,25,29.80,29.60,9,1,14,0.55
2013-6-26,72.1,63.9,57.9,56.4,49.0,40.9,79,61,34,30.01,29.77,6,1,11,0.16
2013-6-27,71.2,65.4,60.8,55.5,52.1,45.0,77,63,41,30.13,29.98,4,0,6,0.08
2013-6-28,86.7,73.5,61.7,57.8,49.6,39.0,78,49,19,30.13,29.97,6,1,9,0.00
2013-6-29,84.5,74.6,65.8,51.8,45.6,39.7,60,38,22,30.04,29.94,7,1,9,0.00
2013-6-30,91.9,78.2,61.8,50.5,46.0,41.1,61,35,18,29.98,29.79,6,1,9,0.00
2013-7-1,88.7,78.1,65.3,47.8,44.0,40.0,52,32,19,29.98,29.85,6,1,11,0.00
2013-7-2,82.7,73.0,63.1,45.2,39.6,32.8,50,31,19,30.04,29.98,7,2,11,0.00
2013-7-3,79.1,69.5,60.9,36.5,33.4,27.8,34,27,21,30.07,30.00,6,2,10,0.00
2013-7-4,71.0,64.3,59.1,40.1,37.3,33.6,45,37,27,30.04,29.98,6,1,9,0.00
2013-7-5,73.7,65.6,57.9,42.7,39.2,33.7,54,39,24,29.98,29.89,5,1,9,0.00
2013-7-6,78.6,67.2,57.5,48.3,41.3,35.2,64,41,22,29.89,29.79,7,1,9,0.00
2013-7-7,75.5,68.3,58.1,46.2,41.5,36.9,60,39,29,29.89,29.82,6,2,11,0.00
2013-7-12,59.3,58.6,58.1,39.0,38.3,37.6,48,47,45,30.04,30.01,0,0,4,0.00
2013-7-13,76.2,64.8,50.3,39.5,35.1,31.0,60,36,20,30.13,30.03,6,2,11,0.00
2013-7-14,80.9,68.3,51.9,40.1,34.0,27.6,58,31,17,30.07,29.91,7,2,10,0.00
2013-7-15,80.0,68.7,54.5,40.4,35.1,30.4,51,31,20,29.99,29.82,8,2,12,0.00
2013-7-16,86.5,72.8,56.6,45.9,37.7,34.4,49,30,16,29.86,29.73,6,1,8,0.00
2013-7-17,71.7,67.2,60.9,46.3,42.2,39.3,50,41,32,30.13,29.83,6,2,13,0.00
2013-7-18,76.8,67.1,59.3,44.6,41.6,39.1,57,41,26,30.16,30.03,6,1,9,0.00
2013-7-19,79.7,67.2,56.3,46.7,42.4,40.1,66,42,25,30.10,29.97,6,1,10,0.00
2013-7-20,75.5,65.1,57.2,47.8,43.6,40.5,65,47,31,30.04,29.91,6,1,8,0.00
2013-7-21,74.4,66.0,59.5,48.0,44.4,41.3,64,47,31,29.92,29.86,6,1,9,0.00
2013-7-22,76.6,66.4,59.3,48.2,44.8,41.5,65,47,29,29.98,29.89,5,1,8,0.00
2013-7-23,85.2,71.0,57.3,49.1,41.8,35.6,68,38,19,29.98,29.91,8,1,9,0.00
2013-7-24,85.1,72.2,57.9,44.4,38.5,30.6,57,32,18,29.98,29.91,6,1,11,0.00
2013-7-25,84.3,71.1,55.7,41.0,35.9,28.0,53,30,13,30.04,29.95,7,1,12,0.00
2013-7-26,84.7,71.0,55.9,41.0,35.0,24.9,55,30,13,30.07,30.00,6,2,13,0.00
2013-7-27,77.0,67.7,55.5,39.3,35.3,30.1,50,31,21,30.07,29.92,6,1,8,0.00
2013-7-28,71.2,64.7,56.4,41.5,38.7,36.7,57,39,31,29.95,29.89,6,2,12,0.00
2013-7-29,73.0,64.4,58.8,42.6,39.4,37.6,48,40,28,29.95,29.89,5,1,8,0.00
2013-7-30,77.0,67.5,58.4,44.6,41.0,36.5,57,40,24,30.07,29.95,5,1,11,0.00
2013-7-31,71.0,64.7,59.9,55.7,47.1,42.2,70,54,36,30.04,29.92,6,1,8,0.00
2013-8-1,66.9,62.9,58.4,53.5,43.7,39.3,70,50,37,30.01,29.95,6,2,9,0.00
2013-8-2,62.6,61.4,59.7,54.0,49.1,40.7,77,65,45,30.07,29.98,5,0,8,0.20
2013-8-3,72.5,65.4,60.4,55.6,49.1,41.4,79,59,33,30.07,29.98,7,1,9,0.04
2013-8-4,80.6,69.3,58.2,50.1,45.7,40.1,72,46,24,29.98,29.88,6,1,11,0.00
2013-8-5,84.2,72.7,59.0,50.5,42.7,36.0,67,37,19,29.95,29.85,7,1,10,0.00
2013-8-6,84.5,70.4,56.6,44.3,40.4,34.9,59,36,18,29.95,29.88,5,1,8,0.00
2013-8-7,84.9,71.6,57.5,44.4,39.5,35.0,59,34,18,29.95,29.88,6,1,11,0.00
2013-8-8,81.1,70.2,60.8,45.1,41.4,35.5,55,37,22,29.98,29.88,6,1,8,0.00
2013-8-9,82.7,70.8,58.1,43.1,39.8,36.6,56,34,21,29.89,29.79,5,1,8,0.00
2013-8-10,78.2,70.2,62.7,56.3,48.8,41.3,72,48,31,29.95,29.83,6,1,9,0.08
2013-8-11,76.8,69.1,60.6,48.7,40.7,36.0,52,37,24,30.01,29.91,7,2,11,0.00
2013-8-12,77.5,68.9,60.6,44.2,40.1,35.7,52,37,24,30.01,29.94,5,1,9,0.00
2013-8-13,80.4,69.5,59.0,45.8,40.0,33.2,60,37,20,30.04,29.86,6,1,9,0.00
2013-8-14,82.9,68.8,58.8,53.3,44.0,35.9,68,43,20,29.92,29.82,5,1,8,0.00
2013-8-15,69.9,67.8,65.4,59.9,56.8,53.1,74,68,59,29.92,29.86,4,0,6,0.08
2013-8-16,81.6,71.5,64.0,61.5,47.9,31.0,79,49,17,29.95,29.88,7,1,9,0.00
2013-8-17,78.2,70.5,64.5,44.3,41.2,37.7,45,35,24,30.01,29.95,7,2,11,0.00
2013-8-18,78.8,69.6,62.9,45.0,40.4,35.0,52,36,23,30.06,30.00,7,2,11,0.00
2013-8-19,77.7,68.2,60.0,43.5,38.6,34.5,47,35,24,30.07,30.00,6,2,10,0.00
2013-8-20,76.4,67.7,59.0,39.8,35.3,31.3,44,31,21,30.10,30.00,8,2,12,0.00
2013-8-21,80.2,67.2,53.0,41.3,36.9,34.0,59,35,20,30.05,29.88,6,1,11,0.00
2013-8-22,83.8,71.1,56.8,44.2,39.4,35.9,58,34,19,29.89,29.73,5,1,8,0.00
2013-8-23,74.1,67.9,63.6,43.2,40.5,37.5,46,37,28,29.83,29.77,7,1,11,0.00
2013-8-24,74.6,67.5,61.8,48.4,40.1,33.2,59,38,22,29.86,29.80,5,1,10,0.00
2013-8-25,73.4,64.6,54.8,47.7,41.5,37.4,64,44,28,29.87,29.80,5,0,8,0.00
2013-8-26,75.5,66.8,61.3,52.7,46.5,33.7,70,50,23,29.89,29.77,6,1,9,0.04
2013-8-27,79.7,69.6,62.2,54.8,47.3,38.9,74,49,24,29.89,29.73,7,1,11,0.00
2013-8-28,77.3,69.1,62.6,61.2,50.6,44.0,78,55,31,29.83,29.74,5,0,7,0.20
2013-8-29,71.9,67.7,65.1,61.5,57.9,51.7,78,71,53,29.95,29.80,4,0,8,0.75
2013-8-30,75.7,68.2,61.5,58.4,46.9,33.2,77,51,22,30.10,29.95,7,1,11,0.00
2013-8-31,79.8,67.2,55.5,50.8,43.8,38.3,75,46,23,30.01,29.77,6,1,8,0.00
2013-9-1,78.8,69.2,58.8,52.2,44.4,38.3,73,44,25,29.83,29.73,6,1,10,0.00
2013-9-2,80.2,71.0,60.9,51.5,42.8,37.3,68,39,22,29.86,29.79,6,1,9,0.00
2013-9-9,75.0,67.6,61.8,47.4,46.5,44.0,59,47,34,29.92,29.91,4,0,6,0.00
2013-9-10,76.8,65.6,58.4,54.2,49.4,44.8,80,58,33,29.92,29.82,6,1,8,0.00
2013-9-11,89.4,71.9,57.9,54.9,48.0,40.3,77,47,19,29.86,29.79,6,0,8,0.00
2013-9-12,77.3,68.8,62.0,55.5,49.2,43.8,74,52,31,29.95,29.85,5,1,8,0.00
2013-9-13,67.6,64.5,60.9,54.9,50.5,47.2,78,61,49,29.89,29.80,4,0,6,0.00
2013-9-14,68.9,65.0,61.5,54.8,51.4,46.9,73,62,46,29.80,29.68,5,0,6,0.00
2013-9-15,67.6,63.4,60.6,57.3,54.2,49.5,79,72,55,29.74,29.62,5,0,8,0.16
2013-9-16,67.6,62.6,59.0,55.6,49.9,44.0,77,64,45,29.86,29.74,7,1,10,0.12
2013-9-17,63.3,59.3,56.4,50.7,44.9,36.6,78,61,38,29.86,29.80,4,0,9,0.00
2013-9-18,66.9,59.3,53.7,48.5,42.4,35.3,76,56,33,30.01,29.86,6,0,8,0.00
2013-9-19,77.0,60.8,47.4,44.2,38.7,32.8,74,47,20,29.99,29.71,4,0,8,0.00
2013-9-20,73.0,62.0,51.8,51.1,40.7,34.0,71,48,25,29.72,29.53,8,1,10,0.00
2013-9-21,68.3,62.3,58.6,51.5,43.9,36.7,73,53,32,29.65,29.59,6,1,11,0.00
2013-9-22,61.1,58.7,56.6,50.3,42.6,33.2,74,56,35,29.69,29.50,6,3,13,0.35
2013-9-23,61.7,57.8,54.5,46.8,41.2,37.0,70,54,42,29.90,29.69,7,3,15,0.00
2013-9-24,62.6,56.1,51.0,48.3,38.6,30.4,78,54,30,29.90,29.77,6,1,13,0.04
2013-9-25,57.9,52.8,47.8,45.6,40.8,32.7,75,64,39,29.96,29.78,5,0,8,0.04
2013-9-26,60.4,52.2,46.2,45.3,38.1,32.4,80,61,36,30.08,29.96,5,0,8,0.00
2013-9-27,57.2,54.6,50.5,44.7,41.7,37.8,74,62,50,30.05,29.78,6,2,10,0.04
2013-9-28,60.6,56.5,52.5,54.3,48.4,41.6,84,75,59,29.78,29.30,9,2,15,1.30
2013-9-29,55.4,53.7,52.3,48.2,42.0,35.5,79,65,47,29.48,29.12,8,3,15,0.59
2013-9-30,58.6,52.2,49.2,44.9,40.4,34.6,77,64,48,29.87,29.36,9,3,17,0.55
2013-10-1,56.8,52.1,48.5,42.9,37.3,33.6,74,58,42,30.02,29.84,9,2,13,0.08
2013-10-2,54.5,52.0,50.0,43.5,39.3,34.0,75,62,49,30.08,29.99,7,1,11,0.63
2013-10-3,56.8,52.1,47.3,46.0,40.4,33.0,81,66,41,30.38,30.11,6,0,8,0.00
2013-10-4,61.3,50.7,41.7,43.8,37.2,32.2,81,62,34,30.41,30.25,5,0,6,0.00
2013-10-5,66.3,53.7,44.2,43.6,37.7,31.2,78,57,27,30.29,30.05,5,0,8,0.00
2013-10-6,69.9,56.2,46.0,47.9,37.0,28.9,80,52,23,30.05,29.80,4,1,10,0.00
2013-10-7,60.0,55.7,53.4,46.5,39.3,30.9,74,56,35,29.93,29.84,8,3,14,0.12
2013-10-8,54.1,51.6,46.2,44.9,38.8,34.5,74,62,49,29.99,29.90,6,1,10,0.12
2013-10-9,57.5,49.3,42.0,42.5,36.8,30.3,79,64,36,30.05,29.90,4,0,6,0.00
2013-10-10,58.8,52.3,46.4,45.5,39.5,32.4,77,63,37,29.99,29.87,4,0,6,0.04
2013-10-11,55.5,52.7,50.1,47.7,44.9,41.1,80,75,66,30.08,29.99,3,0,6,0.31
2013-10-12,56.3,51.3,46.0,45.9,40.6,34.5,81,68,45,30.14,29.99,6,0,9,0.04
2013-10-13,53.9,47.4,42.8,43.1,36.9,33.1,82,68,47,30.29,30.14,4,0,6,0.00
2013-10-14,56.3,46.7,38.8,40.8,35.6,29.8,81,66,46,30.35,30.28,5,0,7,0.00
2013-10-15,58.1,48.3,40.6,44.4,37.4,31.7,82,67,45,30.32,30.11,5,0,6,0.00
2013-10-16,51.9,48.5,45.8,44.9,41.3,36.8,82,76,62,30.14,30.08,3,0,5,0.00
2013-10-17,46.7,45.9,45.5,37.0,35.8,35.1,72,68,65,30.17,30.17,0,0,0,0.00
2013-10-18,57.5,47.8,42.0,43.3,38.8,35.6,82,72,49,30.17,30.05,4,0,5,0.00
2013-10-19,51.0,47.2,43.8,42.5,40.2,35.9,83,77,68,30.11,30.08,4,0,6,0.00
2013-10-20,50.0,48.0,46.7,41.3,40.3,39.1,78,75,67,30.14,30.08,4,0,8,0.00
2013-10-21,52.7,48.6,46.4,42.0,40.8,39.1,79,75,61,30.11,30.02,4,0,5,0.00
2013-10-22,54.1,49.0,46.5,43.7,41.8,38.6,83,76,58,30.05,29.96,4,0,6,0.00
2013-10-23,56.3,47.9,42.0,44.1,40.2,35.7,81,75,57,29.99,29.89,4,0,6,0.00
2013-10-24,52.1,48.4,45.6,45.6,41.9,37.8,83,78,70,30.05,29.93,4,0,5,0.00
2013-10-25,52.3,49.6,46.4,42.8,40.9,35.9,79,72,64,30.23,30.05,4,0,6,0.00
2013-10-26,51.9,49.6,46.9,42.3,38.6,33.7,80,67,50,30.26,30.11,5,0,6,0.00
2013-10-27,53.0,48.9,43.7,44.7,39.9,34.9,81,71,60,30.11,29.84,4,0,8,0.04
2013-10-28,55.9,46.5,39.9,41.0,31.9,21.9,81,60,27,29.87,29.81,7,1,11,0.04
2013-10-29,53.4,42.7,35.7,36.3,27.3,24.3,78,56,34,29.97,29.87,5,0,7,0.00
2013-10-30,56.3,46.5,36.8,38.3,31.4,25.9,77,57,38,30.05,29.96,5,0,8,0.00
2013-10-31,54.8,51.6,50.1,44.8,40.0,31.3,76,65,47,30.20,30.02,5,1,9,0.00
2013-11-1,60.6,54.4,50.5,46.7,42.2,35.2,80,65,39,30.20,29.78,4,0,6,0.00
2013-11-2,54.5,52.9,50.9,46.3,43.9,34.5,79,72,53,29.78,29.42,9,2,15,0.35
2013-11-3,42.0,41.6,40.4,32.6,31.8,29.2,69,68,64,30.02,30.02,0,0,0,0.00
2013-11-4,51.0,42.7,36.1,34.8,28.3,20.7,77,58,33,30.11,29.99,4,0,6,0.00
2013-11-5,53.7,48.2,44.4,47.0,38.6,33.1,83,70,46,30.17,29.93,7,0,11,0.12
2013-11-6,51.6,48.2,44.7,41.5,38.6,33.5,77,70,51,30.23,29.96,4,0,8,0.08
2013-11-7,50.7,49.5,48.7,44.5,42.4,35.5,81,77,56,29.96,29.66,10,2,17,1.10
2013-11-8,53.0,49.2,44.6,41.3,34.9,30.8,76,58,43,30.08,29.90,8,2,11,0.04
2013-11-9,51.0,45.8,38.8,40.4,35.1,29.7,76,67,45,30.08,29.99,4,0,5,0.04
2013-11-10,50.1,47.7,45.8,41.1,39.4,37.1,78,73,63,30.08,30.02,4,0,8,0.00
2013-11-11,55.4,47.0,40.8,44.4,38.1,33.0,83,71,52,30.08,29.93,4,0,5,0.00
2013-11-12,57.0,51.1,45.8,51.3,44.1,37.3,84,77,68,30.28,29.93,6,1,10,0.12
2013-11-13,55.9,52.5,49.2,44.1,40.5,34.6,74,64,46,30.34,30.23,7,1,12,0.00
2013-11-14,50.3,47.8,44.6,44.2,40.3,36.3,81,75,70,30.23,29.99,4,0,6,0.08
2013-11-15,48.2,45.5,43.5,40.6,37.1,33.2,80,72,60,29.99,29.24,11,3,20,0.43
2013-11-16,48.0,44.6,41.0,38.7,31.0,24.6,79,60,41,29.69,29.27,7,2,11,0.31
2013-11-17,51.0,47.6,44.2,40.1,34.1,26.9,72,60,50,29.78,29.69,10,3,15,0.00
2013-11-18,52.1,50.1,47.8,46.6,43.3,38.8,83,77,70,29.78,29.78,8,1,12,0.67
2013-11-19,53.4,45.5,37.9,46.5,32.6,14.1,78,62,35,29.79,29.78,8,1,13,0.20
2013-11-20,41.3,35.6,30.2,30.7,18.4,13.5,71,50,32,29.79,29.78,6,0,9,0.00
2013-11-21,39.5,31.6,26.6,21.7,16.7,14.6,68,54,37,29.79,29.78,5,0,6,0.00
2013-11-22,42.4,32.7,26.7,22.4,18.1,15.4,68,55,38,29.79,29.78,4,0,6,0.00
2013-11-23,46.2,35.6,29.1,27.1,22.0,19.5,71,58,38,29.79,29.78,4,0,6,0.00
2013-11-24,36.6,35.7,34.3,26.6,25.6,23.8,67,66,65,30.17,29.79,0,0,0,0.00
2013-11-25,48.3,39.0,33.0,38.0,29.0,23.8,81,67,53,30.24,30.17,3,0,4,0.00
2013-11-26,46.4,40.1,33.4,39.0,32.2,23.6,82,73,63,30.20,30.02,2,0,4,0.00
2013-11-27,52.5,44.4,37.0,36.8,31.1,25.9,75,60,39,30.02,29.87,4,0,8,0.00
2013-11-28,47.1,38.5,33.6,37.8,29.7,25.5,81,71,61,30.11,29.97,4,0,6,0.00
2013-11-29,46.9,43.5,36.8,40.9,36.8,28.5,80,77,71,30.23,30.11,4,0,6,0.00
2013-11-30,50.9,48.4,45.3,43.2,37.5,31.5,80,67,49,30.26,30.02,6,2,10,0.16
2013-12-1,53.2,51.4,44.2,46.8,39.0,26.6,82,63,44,30.02,29.66,10,4,15,0.04
2013-12-2,44.7,40.6,38.1,29.5,24.7,19.9,70,54,37,29.96,29.72,6,1,10,0.00
2013-12-3,38.3,34.5,28.5,29.0,16.6,11.1,70,48,33,30.24,29.96,6,1,9,0.00
2013-12-4,35.0,28.5,24.4,18.0,13.4,10.6,62,53,36,30.30,30.21,5,0,6,0.00
2013-12-5,33.2,27.7,22.8,15.7,10.1,2.6,63,48,31,30.27,30.12,7,0,11,0.00
2013-12-6,32.1,27.1,20.3,4.6,1.3,-1.0,41,32,28,30.18,30.06,7,2,13,0.00
2013-12-7,30.2,20.4,15.4,10.4,-0.1,-1.0,46,40,28,30.37,30.15,6,0,8,0.00
2013-12-8,30.7,23.3,16.1,6.3,3.8,0.0,51,43,31,30.51,30.37,4,0,6,0.00
2013-12-9,33.4,28.1,19.7,13.7,9.1,4.5,55,45,35,30.51,30.41,3,0,4,0.00
2013-12-10,39.3,35.5,33.0,20.7,18.2,13.5,54,49,44,30.42,30.35,3,0,6,0.00
2013-12-11,39.9,33.8,29.3,26.2,20.3,16.3,70,57,49,30.35,30.09,4,0,5,0.00
2013-12-12,40.8,36.3,30.2,33.6,27.0,20.5,77,69,53,30.09,29.99,4,0,6,0.24
2013-12-13,47.4,44.2,40.6,42.8,38.3,33.6,84,80,76,30.35,30.05,2,0,6,0.12
2013-12-14,47.8,45.4,42.6,40.9,37.4,34.6,80,74,60,30.35,30.26,5,0,9,0.00
2013-12-15,55.2,49.6,47.4,44.8,40.1,32.7,77,70,55,30.38,30.23,7,1,10,0.20
2013-12-16,48.0,44.9,41.3,40.4,37.9,35.0,81,76,73,30.41,30.20,3,0,5,0.00
2013-12-17,45.1,41.7,39.5,38.0,35.3,33.2,81,78,74,30.20,30.02,4,0,8,0.00
2013-12-18,44.6,41.6,33.6,38.1,32.8,23.6,79,71,54,30.09,29.93,3,0,8,0.12
2013-12-19,36.8,32.5,28.5,25.9,22.0,17.5,75,65,45,30.27,30.06,3,0,6,0.00
2013-12-20,38.6,35.4,32.1,33.3,28.5,22.8,81,76,68,30.15,29.64,7,0,11,0.08
2013-12-21,45.5,41.6,38.8,40.6,36.4,33.5,83,82,80,30.08,29.76,2,0,5,0.43
2013-12-22,50.1,47.6,45.5,45.5,42.7,40.6,85,83,80,30.23,30.08,7,0,11,0.39
2013-12-23,52.7,48.6,41.7,43.3,39.5,32.4,80,71,48,30.44,30.05,10,3,20,0.16
2013-12-24,45.5,40.3,36.3,37.8,31.7,28.0,82,72,56,30.53,30.44,4,0,6,0.00
2013-12-25,38.4,35.4,33.6,32.8,29.2,26.7,82,78,75,30.47,30.32,3,0,4,0.00
2013-12-26,42.8,36.8,33.8,38.1,30.5,27.0,84,78,73,30.32,30.11,3,0,4,0.00
2013-12-27,45.3,39.5,33.6,39.7,33.4,26.5,84,79,71,30.29,30.05,7,0,15,0.12
2013-12-28,47.3,43.0,38.4,41.8,36.3,28.8,83,77,65,30.44,30.26,2,0,4,0.00
2013-12-29,42.9,40.6,38.8,35.5,34.0,32.7,81,77,70,30.41,30.23,3,0,6,0.00
2013-12-30,43.5,40.9,37.4,38.2,35.1,31.1,83,80,77,30.23,30.05,5,0,8,0.00
2013-12-31,47.3,44.2,41.3,41.1,37.8,33.0,82,78,72,30.29,30.11,4,0,5,0.04
2014-1-1,43.5,40.8,36.1,37.5,34.4,28.6,81,78,74,30.32,30.17,3,0,5,0.04
2014-1-2,48.3,44.7,41.9,41.6,37.3,31.8,84,76,54,30.17,29.81,7,0,12,0.59